Yeppoon Observation History
Time Wind Speed Temp Pressure Rel. Hum Rain
30/09:00am SE 9-14 kts 26.1°c 1016.0 hPa 79% 0.0mm
30/08:30am SE 9-13 kts 25.9°c 1015.9 hPa 80% 0.0mm
30/08:00am SE 8-12 kts 25.3°c 1015.8 hPa 82% 0.0mm
30/07:30am S 5-7 kts 23.7°c 1015.6 hPa 91% 0.0mm
30/07:00am S 4-6 kts 23.3°c 1015.1 hPa 93% 0.0mm
30/06:30am SSW 5-8 kts 22.8°c 1015.0 hPa 94% 0.0mm
30/06:00am S 6-8 kts 22.4°c 1014.6 hPa 94% 0.0mm
30/05:30am S 6-8 kts 22.4°c 1014.4 hPa 93% 0.0mm
30/05:00am S 5-8 kts 22.6°c 1014.3 hPa 92% 0.0mm
30/04:30am S 5-6 kts 23.0°c 1014.2 hPa 90% 0.0mm
30/04:00am SSE 6-7 kts 23.4°c 1014.1 hPa 88% 0.0mm
30/03:30am SE 5-7 kts 24.3°c 1014.3 hPa 80% 0.0mm
30/03:00am SE 7-10 kts 25.1°c 1014.8 hPa 76% 0.0mm
30/02:30am ESE 9-12 kts 25.4°c 1015.0 hPa 77% 0.0mm
30/02:00am ESE 9-12 kts 25.4°c 1015.0 hPa 77% 0.0mm
30/01:30am E 12-15 kts 25.6°c 1015.0 hPa 77% 0.0mm
30/01:00am ESE 9-13 kts 25.4°c 1015.6 hPa 77% 0.0mm
30/12:30am E 11-14 kts 25.7°c 1015.9 hPa 77% 0.0mm
30/12:00am ESE 9-13 kts 25.6°c 1016.2 hPa 76% 0.0mm
Time Wind Speed Temp Pressure Rel. Hum Rain
29/11:30pm E 11-14 kts 25.6°c 1016.2 hPa 76% 0.0mm
29/11:00pm E 12-14 kts 25.8°c 1016.4 hPa 77% 0.0mm
29/10:30pm ESE 11-14 kts 25.7°c 1016.5 hPa 76% 0.0mm
29/10:00pm ESE 10-14 kts 25.8°c 1016.5 hPa 77% 0.0mm
29/09:30pm E 12-15 kts 25.9°c 1016.3 hPa 78% 0.0mm
29/09:00pm E 11-14 kts 25.9°c 1016.2 hPa 79% 0.0mm
29/08:30pm E 11-15 kts 25.7°c 1016.0 hPa 76% 0.0mm
29/08:00pm E 11-13 kts 25.9°c 1015.7 hPa 78% 0.0mm
29/07:30pm E 11-13 kts 25.8°c 1015.4 hPa 74% 0.0mm
29/07:00pm E 11-15 kts 26.0°c 1015.2 hPa 76% 0.0mm
29/06:30pm ESE 11-13 kts 26.1°c 1014.9 hPa 74% 0.0mm
29/06:00pm E 11-13 kts 26.1°c 1014.8 hPa 72% 0.0mm
29/05:30pm E 12-14 kts 26.3°c 1014.6 hPa 70% 0.0mm
29/05:00pm E 12-15 kts 26.6°c 1014.4 hPa 72% 0.0mm
29/04:30pm ESE 12-17 kts 26.9°c 1014.1 hPa 68% 0.0mm
29/04:00pm ESE 12-15 kts 27.0°c 1014.2 hPa 66% 0.0mm
29/03:30pm E 12-15 kts 27.2°c 1014.2 hPa 69% 0.0mm
29/03:00pm E 12-15 kts 27.4°c 1014.3 hPa 67% 0.0mm
29/02:30pm ESE 12-15 kts 27.5°c 1014.5 hPa 73% 0.0mm
29/02:00pm ESE 11-15 kts 27.1°c 1014.7 hPa 75% 0.0mm
29/01:30pm ESE 9-13 kts 26.7°c 1014.9 hPa 75% 0.0mm
29/01:00pm SE 9-14 kts 27.0°c 1015.1 hPa 75% 0.0mm
29/12:30pm ESE 10-15 kts 26.5°c 1015.4 hPa 73% 0.0mm
29/12:00pm ESE 10-15 kts 26.9°c 1015.7 hPa 72% 0.0mm
29/11:30am SE 10-14 kts 26.4°c 1015.9 hPa 77% 0.0mm
29/11:00am SE 9-13 kts 26.3°c 1016.1 hPa 79% 0.0mm
29/10:30am ESE 10-15 kts 26.7°c 1016.4 hPa 77% 0.0mm
29/10:00am SE 10-15 kts 26.2°c 1016.6 hPa 78% 0.0mm
29/09:30am SE 11-15 kts 25.4°c 1016.7 hPa 81% 0.0mm
29/09:00am SE 9-13 kts 24.9°c 1016.5 hPa 87% 0.2mm
29/08:30am SE 11-18 kts 24.5°c 1016.4 hPa 87% 0.2mm
29/08:00am SE 11-16 kts 24.3°c 1016.1 hPa 90% 0.2mm
29/07:30am SSE 10-14 kts 23.6°c 1015.6 hPa 90% 0.0mm
29/07:00am SSE 9-13 kts 23.6°c 1015.3 hPa 90% 0.0mm
29/06:30am SSE 8-11 kts 23.4°c 1015.0 hPa 90% 0.0mm
29/06:00am SSE 8-11 kts 23.4°c 1014.8 hPa 91% 0.0mm
29/05:30am SSE 6-9 kts 23.2°c 1014.6 hPa 92% 0.0mm
29/05:00am SSE 6-7 kts 22.8°c 1014.3 hPa 91% 0.0mm
29/04:30am SSE 5-7 kts 22.8°c 1014.1 hPa 90% 0.0mm
29/04:00am SSE 8-12 kts 23.1°c 1014.0 hPa 89% 0.0mm
29/03:30am SSE 9-11 kts 23.4°c 1014.0 hPa 89% 0.0mm
29/03:00am SSE 8-13 kts 23.4°c 1014.1 hPa 90% 0.0mm
29/02:30am SSE 7-10 kts 23.4°c 1014.5 hPa 89% 0.0mm
29/02:00am SSE 7-10 kts 23.5°c 1014.9 hPa 88% 0.0mm
29/01:30am SSE 7-8 kts 23.8°c 1015.2 hPa 88% 0.0mm
29/01:00am SSE 7-10 kts 24.3°c 1015.3 hPa 86% 0.0mm
29/12:30am SSE 8-13 kts 24.8°c 1015.5 hPa 82% 0.0mm
29/12:00am ESE 11-16 kts 25.4°c 1015.8 hPa 74% 0.0mm
Time Wind Speed Temp Pressure Rel. Hum Rain
28/11:30pm ESE 10-16 kts 25.4°c 1016.1 hPa 77% 0.0mm
28/11:00pm ESE 11-17 kts 25.3°c 1016.4 hPa 77% 0.0mm
28/10:30pm ESE 12-16 kts 25.4°c 1016.3 hPa 73% 0.0mm
28/10:00pm ESE 12-19 kts 25.0°c 1016.5 hPa 82% 0.0mm
28/09:30pm SE 11-17 kts 25.4°c 1016.6 hPa 79% 0.0mm
28/09:00pm ESE 11-16 kts 25.2°c 1016.4 hPa 80% 0.0mm
28/08:30pm ESE 11-17 kts 25.5°c 1016.2 hPa 77% 0.0mm
28/08:00pm ESE 8-13 kts 25.1°c 1015.8 hPa 84% 0.0mm
28/07:30pm ESE 10-14 kts 24.8°c 1015.5 hPa 84% 0.0mm
28/07:00pm ESE 12-15 kts 24.8°c 1015.2 hPa 83% 0.0mm
28/06:30pm ESE 11-17 kts 24.8°c 1015.0 hPa 79% 0.0mm
28/06:00pm ESE 17-23 kts 24.6°c 1015.0 hPa 81% 0.0mm
28/05:30pm ESE 17-23 kts 25.2°c 1014.8 hPa 81% 0.0mm
28/05:00pm ESE 10-16 kts 25.7°c 1014.5 hPa 80% 0.0mm
28/04:30pm ESE 14-19 kts 25.2°c 1014.2 hPa 78% 0.0mm
28/04:00pm ESE 14-21 kts 26.2°c 1014.3 hPa 80% 0.0mm
28/03:30pm ESE 12-17 kts 26.3°c 1014.5 hPa 76% 0.0mm
28/03:00pm ESE 12-19 kts 26.4°c 1014.7 hPa 76% 0.0mm
28/02:30pm ESE 12-17 kts 26.6°c 1014.7 hPa 72% 0.0mm
28/02:00pm ESE 11-18 kts 27.0°c 1015.0 hPa 74% 0.0mm
28/01:30pm ESE 13-19 kts 26.7°c 1015.3 hPa 72% 0.0mm
28/01:00pm ESE 13-18 kts 27.2°c 1015.6 hPa 69% 0.0mm
28/12:30pm ESE 13-19 kts 27.1°c 1015.7 hPa 70% 0.0mm
28/12:00pm ESE 13-19 kts 27.0°c 1016.1 hPa 71% 0.0mm
28/11:30am ESE 12-17 kts 26.9°c 1016.5 hPa 72% 0.0mm
28/11:00am SE 13-20 kts 26.6°c 1016.7 hPa 72% 0.0mm
28/10:30am SE 14-18 kts 26.5°c 1016.9 hPa 72% 0.0mm
28/10:00am SE 13-17 kts 25.8°c 1017.0 hPa 73% 0.0mm
28/09:30am SE 12-17 kts 25.6°c 1017.1 hPa 74% 0.0mm
28/09:00am SE 12-17 kts 25.5°c 1017.0 hPa 75% 0.0mm
28/08:30am SSE 13-18 kts 24.6°c 1016.8 hPa 79% 0.0mm
28/08:00am SSE 11-17 kts 23.4°c 1016.6 hPa 83% 0.0mm
28/07:30am SSE 7-10 kts 22.9°c 1016.2 hPa 85% 0.0mm
28/07:00am SSW 7-9 kts 21.8°c 1016.0 hPa 87% 0.0mm
28/06:30am SSE 11-15 kts 22.4°c 1015.8 hPa 86% 0.0mm
28/06:00am SSE 9-13 kts 22.4°c 1015.5 hPa 86% 0.0mm
28/05:30am SSE 9-12 kts 22.6°c 1015.4 hPa 83% 0.0mm
28/05:00am SSE 8-12 kts 22.8°c 1015.2 hPa 82% 0.0mm
28/04:30am SSE 9-13 kts 23.0°c 1015.0 hPa 80% 0.0mm
28/04:00am SSE 6-9 kts 23.0°c 1015.1 hPa 81% 0.0mm
28/03:30am SE 10-16 kts 23.1°c 1015.2 hPa 82% 0.0mm
28/03:00am SE 9-12 kts 23.7°c 1015.3 hPa 79% 0.0mm
28/02:30am SE 9-14 kts 23.9°c 1015.4 hPa 78% 0.0mm
28/02:00am SE 11-15 kts 24.0°c 1015.6 hPa 79% 0.0mm
28/01:30am SE 11-16 kts 24.5°c 1015.9 hPa 78% 0.0mm
28/01:00am ESE 11-17 kts 25.2°c 1016.1 hPa 77% 0.0mm
28/12:30am ESE 13-20 kts 25.6°c 1016.4 hPa 73% 0.0mm
28/12:00am ESE 14-19 kts 25.5°c 1016.7 hPa 73% 0.0mm